Regional Weather Roundup
Issued by NWS

Home | Current Version | Previous Version | Text Only | Print | Product List | Glossary On
Versions: 1 2 3 4 5 6 7 8 9 10 11 12 13 14 15 16 17 18 19 20 21 22 23 24 25 26 27 28 29 30 31 32 33 34 35 36 37 38 39 40 41 42 43 44 45 46 47 48 49 50
000
ASUS46 KSEW 291510
RWRWA

WASHINGTON REGIONAL WEATHER ROUNDUP
NATIONAL WEATHER SERVICE SEATTLE WA
800 AM PDT FRI MAY 29 2015

NOTE:"FAIR" INDICATES FEW OR NO CLOUDS BELOW 12,000 FEET WITH NO
SIGNIFICANT WEATHER AND/OR OBSTRUCTIONS TO VISIBILITY.

WAZ505-507>509-291600-
SEATTLE, TACOMA, EVERETT, AND VICINITY

CITY           SKY/WX    TMP DP  RH WIND       PRES   REMARKS
EVERETT        MOSUNNY   62  51  67 NE3       30.00S
BOEING FIELD   MOSUNNY   64  54  69 CALM      29.99S
RENTON         MOSUNNY   63  55  75 S6        29.99S
SEATAC AIRPORT PTSUNNY   58  53  84 S6        30.01R
JBLM-MCCHORD   CLOUDY    55  55 100 VRB3      30.00F
PUYALLUP       FAIR      61  57  88 CALM      30.01S
BREMERTON      CLOUDY    54  52  94 S3        30.03S VSB<1/4
JBLM-FT LEWIS  CLOUDY    54  54  99 NW6       30.00F
TACOMA NARROWS FOG       53  52  96 W3        30.01F VSB 1/2
$$

WAZ001-503-506-510-514-515-291600-
NORTH INTERIOR

CITY           SKY/WX    TMP DP  RH WIND       PRES   REMARKS
BELLINGHAM     MOSUNNY   57  53  86 S7        29.98S
FRIDAY HARBOR  SUNNY     54  50  86 E3        30.00S
EASTSOUND      SUNNY     57  54  88 S5        29.97S
PORT ANGELES   MOSUNNY   53  51  93 CALM      30.00S
PORT TOWNSEND  CLOUDY    54  54 100 CALM      30.00R FOG
NAS WHIDBEY    CLOUDY    54  51  90 SW7       30.04S FOG
ARLINGTON        N/A     57  50  77 N3        30.00F
BURLINGTON     MOSUNNY   54  52  94 S5        30.00S
$$

WAZ020-022-039-040-504-511-512-291600-
SOUTHWEST INTERIOR

CITY           SKY/WX    TMP DP  RH WIND       PRES   REMARKS
SHELTON        CLOUDY    52  49  89 W9        30.00S
OLYMPIA        CLOUDY    52  50  93 S3        30.02S FOG
CHEHALIS       CLOUDY    55  54  94 CALM      30.02S
KELSO          CLOUDY    55  50  82 NW5       30.06R
VANCOUVER      SUNNY     59  52  77 W7        29.99S
SCAPPOOSE, OR  MOSUNNY   58  53  84 CALM      29.99S
PORTLAND, OR   PTSUNNY   60  53  77 NW7       30.00S
$$

WAZ021-516-517-291600-
WASHINGTON COAST

CITY           SKY/WX    TMP DP  RH WIND       PRES   REMARKS
FORKS          FOG       50  50 100 CALM      30.02S VSB 1
HOQUIAM        CLOUDY    52  51  97 W3        30.03S FOG
ASTORIA, OR    CLOUDY    53  51  93 W5        30.03S FOG
$$

WAZ019-023-024-040-518-519-291600-
CASCADE MOUNTAINS AND COLUMBIA GORGE

CITY           SKY/WX    TMP DP  RH WIND       PRES   REMARKS
TROUTDALE, OR  SUNNY     61  53  75 CALM      29.98S
THE DALLES, OR SUNNY     68  54  60 NW5       29.95S
$$

WAZ026-027-041>044-520-521-291600-
EAST SLOPES

CITY           SKY/WX    TMP DP  RH WIND       PRES   REMARKS
OMAK           PTSUNNY   65  57  75 CALM      30.02F
WENATCHEE      PTSUNNY   66  52  60 W3        30.02R
ELLENSBURG     MOSUNNY   66  54  65 CALM      30.02S
YAKIMA         MOSUNNY   69  54  58 W6        29.99S
$$

WAZ028-034-035-291600-
COLUMBIA BASIN

CITY           SKY/WX    TMP DP  RH WIND       PRES   REMARKS
EPHRATA        PTSUNNY   67  52  58 N10       30.01S
MOSES LAKE     PTSUNNY   68  53  58 NE9       30.00F
PASCO          MOSUNNY   65  55  70 CALM      29.98S
HERMISTON, OR  SUNNY     66  52  60 CALM      29.96S
$$

WAZ036>038-291600-
NORTHEAST WASHINGTON

CITY           SKY/WX    TMP DP  RH WIND       PRES   REMARKS
SPOKANE GEIGER PTSUNNY   61  51  70 NE10      30.07S
SPOKANE FELTS  MOSUNNY   61  53  75 W3        30.07F
FAIRCHILD AFB  MOSUNNY   61  52  74 NE12      30.06F
COEURDALENE,ID MOSUNNY   59  52  77 N12       30.08F
DEER PARK      MOSUNNY   62  51  67 NE10      30.08S
$$

WAZ029>033-291600-
SOUTHEAST WASHINGTON

CITY           SKY/WX    TMP DP  RH WIND       PRES   REMARKS
PULLMAN        MOSUNNY   64  48  56 E17       30.06S
LEWISTON, ID   MOSUNNY   65  51  60 E9        30.03F
WALLA WALLA    MOSUNNY   69  51  52 SW5       29.98R
PENDLETON, OR  SUNNY     68  50  52 SE3       29.98S
$$



USA.gov is the U.S. government's official web portal to all federal, state and local government web resources and services.